This is the latest recevied weather packets stored in our database for station/object N5PRN. If no packets are shown the sender has not sent any weather packets the latest 10 day(s).
| Time | Temp. | Humidity | Pressure | Rain* | Wind** | Luminosity | Snow |
|---|---|---|---|---|---|---|---|
| 1777730245 | 12.78° C | 97% | 1018.9 hPa | 0 mm | - | 386 W/m² | - |
| 1777729942 | 12.22° C | 97% | 1018.6 hPa | 0 mm | - | 166 W/m² | - |
| 1777729638 | 12.22° C | 97% | 1018.5 hPa | 0 mm | - | 85 W/m² | - |
| 1777729335 | 12.22° C | 97% | 1018.6 hPa | 0 mm | - | 58 W/m² | - |
| 1777729031 | 12.22° C | 97% | 1018.5 hPa | 0 mm | - | 53 W/m² | - |
| 1777728728 | 11.67° C | 97% | 1018.4 hPa | 0 mm | - | 52 W/m² | - |
| 1777728425 | 11.67° C | 97% | 1018.4 hPa | 0 mm | - | 50 W/m² | - |
| 1777728122 | 11.67° C | 97% | 1018.3 hPa | 0 mm | - | 49 W/m² | - |
| 1777727819 | 11.67° C | 97% | 1018.4 hPa | 0 mm | - | 50 W/m² | - |
| 1777727516 | 11.67° C | 97% | 1018.2 hPa | 0 mm | - | 48 W/m² | - |
| 1777727213 | 11.67° C | 97% | 1018.1 hPa | 0 mm | - | 47 W/m² | - |
| 1777726911 | 11.67° C | 97% | 1018 hPa | 0 mm | - | 44 W/m² | - |
| 1777726606 | 11.67° C | 97% | 1018 hPa | 0 mm | - | 43 W/m² | - |
| 1777726299 | 11.67° C | 97% | 1018 hPa | 0 mm | - | 42 W/m² | - |
| 1777725995 | 11.11° C | 97% | 1018 hPa | 0 mm | - | 40 W/m² | - |
| 1777725692 | 11.11° C | 97% | 1017.8 hPa | 0 mm | - | 38 W/m² | - |
| 1777725390 | 11.11° C | 97% | 1017.8 hPa | 0 mm | - | 36 W/m² | - |
| 1777725087 | 11.11° C | 97% | 1017.7 hPa | 0 mm | - | 35 W/m² | - |
| 1777724784 | 11.11° C | 96% | 1017.9 hPa | 0 mm | - | 33 W/m² | - |
| 1777724481 | 11.11° C | 96% | 1017.6 hPa | 0 mm | - | 32 W/m² | - |
| 1777724179 | 11.11° C | 96% | 1017.6 hPa | 0 mm | - | 29 W/m² | - |
| 1777723876 | 11.11° C | 96% | 1017.3 hPa | 0 mm | - | 27 W/m² | - |
| 1777723572 | 10.56° C | 96% | 1017.2 hPa | 0 mm | - | 26 W/m² | - |
| 1777723269 | 10.56° C | 96% | 1017.3 hPa | 0 mm | - | 23 W/m² | - |
| 1777722967 | 10.56° C | 96% | 1017.2 hPa | 0 mm | - | 20 W/m² | - |
* Rain latest hour (hover to see other rain measurements)
** Current wind speed in m/s (hover to see current wind gust speed)